📊 Raw Sensor Data
Showing records 48201 to 48225 of 85,096 total
| ID | Distance (ft) | Battery V | Battery A | Int Temp (°F) | Int Humid (%) | Ext Temp (°F) | Solar V | RSSI | SNR | Time Stamp |
|---|---|---|---|---|---|---|---|---|---|---|
| 36908 | -- | 3.84 | -5 | 50 | 41 | 51 | 0.10 | -77 | 8 | 04/04/2025 11:45 PM |
| 36907 | 15.1 | 3.90 | -5 | 51 | 41 | 53 | 0.00 | -76 | 8 | 04/04/2025 11:30 PM |
| 36906 | -- | 3.84 | -11 | 51 | 41 | 52 | 0.00 | -77 | 8 | 04/04/2025 11:15 PM |
| 36905 | 15.0 | 3.84 | -5 | 52 | 41 | 53 | 0.00 | -77 | 8 | 04/04/2025 11:00 PM |
| 36904 | 15.1 | 3.84 | -5 | 52 | 41 | 54 | 0.00 | -77 | 8 | 04/04/2025 10:45 PM |
| 36903 | 15.1 | 3.90 | -5 | 53 | 41 | 54 | 0.00 | -76 | 8 | 04/04/2025 10:30 PM |
| 36902 | -- | 3.90 | -5 | 53 | 41 | 55 | 0.00 | -75 | 8 | 04/04/2025 10:15 PM |
| 36901 | 15.2 | 3.83 | -5 | 53 | 42 | 55 | 0.00 | -77 | 8 | 04/04/2025 10:00 PM |
| 36900 | 15.0 | 3.83 | -5 | 54 | 42 | 56 | 0.00 | -76 | 8 | 04/04/2025 09:45 PM |
| 36899 | 15.0 | 3.90 | -5 | 54 | 42 | 56 | 0.00 | -76 | 8 | 04/04/2025 09:30 PM |
| 36898 | -- | 3.90 | -5 | 54 | 43 | 56 | 0.00 | -74 | 8 | 04/04/2025 09:15 PM |
| 36897 | -- | 3.82 | -5 | 55 | 43 | 56 | 0.00 | -75 | 8 | 04/04/2025 09:00 PM |
| 36896 | 15.0 | 3.83 | -5 | 56 | 44 | 57 | 0.00 | -75 | 8 | 04/04/2025 08:45 PM |
| 36895 | 15.0 | 3.79 | -5 | 57 | 44 | 58 | 0.10 | -75 | 8 | 04/04/2025 08:30 PM |
| 36894 | -- | 3.81 | -5 | 59 | 46 | 60 | 0.00 | -75 | 8 | 04/04/2025 08:00 PM |
| 36893 | -- | 3.82 | -5 | 60 | 47 | 60 | 0.40 | -75 | 7 | 04/04/2025 07:45 PM |
| 36892 | -- | 3.78 | -10 | 63 | 47 | 62 | 1.60 | -74 | 8 | 04/04/2025 07:30 PM |
| 36891 | -- | 3.72 | 0 | 66 | 47 | 64 | 4.50 | -74 | 9 | 04/04/2025 07:15 PM |
| 36890 | -- | 3.98 | 8 | 70 | 45 | 65 | 4.50 | -75 | 9 | 04/04/2025 07:00 PM |
| 36889 | -- | 3.92 | 0 | 74 | 44 | 68 | 4.50 | -77 | 9 | 04/04/2025 06:45 PM |
| 36888 | -- | 3.88 | 0 | 76 | 43 | 69 | 5.10 | -78 | 8 | 04/04/2025 06:31 PM |
| 36887 | -- | 4.02 | 0 | 77 | 42 | 70 | 5.10 | -77 | 9 | 04/04/2025 06:15 PM |
| 36886 | -- | 3.88 | 0 | 78 | 42 | 70 | 5.10 | -77 | 8 | 04/04/2025 06:00 PM |
| 36885 | -- | 3.89 | 0 | 80 | 41 | 71 | 5.10 | -77 | 9 | 04/04/2025 05:45 PM |
| 36884 | -- | 3.89 | 0 | 80 | 40 | 72 | 5.10 | -77 | 9 | 04/04/2025 05:30 PM |